| time (UTC) | temp F | wind direction | speed knots | gust knots | rain 1hr in | rain 24hr in | rain mn in | humidity % | barometer mb |
| 20260504014534 | 50 | 148 | 0.0 | 0.0 | 0.00 | 0.00 | 0.00 | 78 | 1017.4 |
| 20260504014031 | 50 | 149 | 0.0 | 0.0 | 0.00 | 0.00 | 0.00 | 78 | 1017.6 |
| 20260504013529 | 51 | 149 | 0.0 | 0.0 | 0.00 | 0.00 | 0.00 | 78 | 1017.4 |
| 20260504013026 | 51 | 149 | 0.0 | 0.0 | 0.00 | 0.00 | 0.00 | 78 | 1017.6 |
| 20260504012523 | 51 | 148 | 0.0 | 0.0 | 0.00 | 0.00 | 0.00 | 77 | 1017.6 |
| 20260504012021 | 51 | 148 | 0.0 | 0.0 | 0.00 | 0.00 | 0.00 | 76 | 1017.5 |
| 20260504011517 | 52 | 148 | 0.0 | 0.0 | 0.00 | 0.00 | 0.00 | 75 | 1017.3 |
| 20260504011013 | 52 | 152 | 0.0 | 0.0 | 0.00 | 0.00 | 0.00 | 75 | 1017.5 |
| 20260504010509 | 53 | 152 | 0.0 | 0.0 | 0.00 | 0.00 | 0.00 | 74 | 1017.5 |
| 20260504010005 | 53 | 151 | 0.0 | 0.0 | 0.00 | 0.00 | 0.00 | 71 | 1017.4 |
| 20260504005502 | 54 | 153 | 0.0 | 0.0 | 0.00 | 0.00 | 0.00 | 72 | 1017.6 |
| 20260504005000 | 54 | 143 | 0.0 | 0.0 | 0.00 | 0.00 | 0.00 | 70 | 1017.3 |
| 20260504004457 | 55 | 154 | 0.0 | 0.0 | 0.00 | 0.00 | 0.00 | 70 | 1017.3 |
| 20260504003954 | 56 | 154 | 0.0 | 0.0 | 0.00 | 0.00 | 0.00 | 67 | 1016.9 |
| 20260504003450 | 57 | 160 | 0.0 | 0.0 | 0.00 | 0.00 | 0.00 | 64 | 1017.1 |
| 20260504002947 | 58 | 149 | 0.0 | 0.0 | 0.00 | 0.00 | 0.00 | 60 | 1017.2 |
| 20260504002444 | 59 | 154 | 0.0 | 0.0 | 0.00 | 0.00 | 0.00 | 59 | 1017.0 |
| 20260504001941 | 60 | 154 | 0.0 | 0.0 | 0.00 | 0.00 | 0.00 | 55 | 1017.2 |
| 20260504001439 | 61 | 156 | 0.0 | 0.0 | 0.00 | 0.00 | 0.00 | 54 | 1017.1 |
| 20260504000936 | 61 | 149 | 0.0 | 0.9 | 0.00 | 0.00 | 0.00 | 52 | 1017.2 |
| 20260504000432 | 63 | 160 | 0.0 | 0.0 | 0.00 | 0.00 | 0.00 | 51 | 1017.2 |
| 20260503235930 | 64 | 170 | 0.0 | 0.9 | 0.00 | 0.00 | 0.00 | 48 | 1017.2 |
| 20260503235427 | 65 | 160 | 0.0 | 0.0 | 0.00 | 0.00 | 0.00 | 48 | 1017.2 |
| 20260503234925 | 67 | 166 | 0.0 | 0.9 | 0.00 | 0.00 | 0.00 | 44 | 1017.2 |
| 20260503234422 | 66 | 209 | 0.0 | 2.6 | 0.00 | 0.00 | 0.00 | 46 | 1017.3 |
| 20260503233920 | 68 | 177 | 0.0 | 0.9 | 0.00 | 0.00 | 0.00 | 44 | 1017.6 |
| 20260503233416 | 67 | 187 | 0.0 | 1.7 | 0.00 | 0.00 | 0.00 | 44 | 1017.3 |
| 20260503232913 | 68 | 169 | 0.0 | 1.7 | 0.00 | 0.00 | 0.00 | 45 | 1017.5 |
| 20260503232410 | 68 | 161 | 0.0 | 0.9 | 0.00 | 0.00 | 0.00 | 44 | 1017.4 |
| 20260503231908 | 68 | 189 | 0.9 | 0.9 | 0.00 | 0.00 | 0.00 | 42 | 1017.5 |
| 20260503231405 | 68 | 203 | 0.0 | 1.7 | 0.00 | 0.00 | 0.00 | 42 | 1017.5 |
| 20260503230901 | 68 | 201 | 0.0 | 1.7 | 0.00 | 0.00 | 0.00 | 45 | 1017.4 |
| 20260503230358 | 67 | 264 | 1.7 | 2.6 | 0.00 | 0.00 | 0.00 | 43 | 1017.5 |
| 20260503225855 | 67 | 237 | 1.7 | 1.7 | 0.00 | 0.00 | 0.00 | 40 | 1017.6 |
| 20260503225351 | 67 | 270 | 3.5 | 5.2 | 0.00 | 0.00 | 0.00 | 40 | 1017.6 |
| 20260503224848 | 68 | 259 | 1.7 | 2.6 | 0.00 | 0.00 | 0.00 | 40 | 1017.8 |
| 20260503224345 | 68 | 189 | 0.9 | 2.6 | 0.00 | 0.00 | 0.00 | 41 | 1017.8 |
| 20260503223842 | 67 | 191 | 0.9 | 6.1 | 0.00 | 0.00 | 0.00 | 41 | 1017.7 |
| 20260503223340 | 68 | 208 | 1.7 | 2.6 | 0.00 | 0.00 | 0.00 | 40 | 1017.7 |
| 20260503222835 | 68 | 239 | 1.7 | 3.5 | 0.00 | 0.00 | 0.00 | 40 | 1018.0 |
| 20260503222334 | 70 | 309 | 3.5 | 5.2 | 0.00 | 0.00 | 0.00 | 38 | 1017.9 |
| 20260503221832 | 70 | 168 | 0.0 | 1.7 | 0.00 | 0.00 | 0.00 | 42 | 1017.9 |
| 20260503221331 | 70 | 151 | 0.9 | 1.7 | 0.00 | 0.00 | 0.00 | 42 | 1017.9 |
| 20260503220826 | 70 | 152 | 0.0 | 1.7 | 0.00 | 0.00 | 0.00 | 42 | 1017.8 |
| 20260503220323 | 68 | 183 | 0.0 | 1.7 | 0.00 | 0.00 | 0.00 | 40 | 1018.0 |
| 20260503215820 | 68 | 185 | 0.0 | 1.7 | 0.00 | 0.00 | 0.00 | 41 | 1018.1 |
| 20260503215317 | 69 | 240 | 4.3 | 5.2 | 0.00 | 0.00 | 0.00 | 41 | 1018.1 |
| 20260503214815 | 69 | 171 | 2.6 | 2.6 | 0.00 | 0.00 | 0.00 | 40 | 1018.1 |
| 20260503214312 | 68 | 238 | 1.7 | 1.7 | 0.00 | 0.00 | 0.00 | 41 | 1018.2 |
| 20260503213809 | 69 | 125 | 0.9 | 1.7 | 0.00 | 0.00 | 0.00 | 39 | 1018.2 |
| 20260503213307 | 67 | 331 | 1.7 | 2.6 | 0.00 | 0.00 | 0.00 | 39 | 1018.4 |
| 20260503212804 | 67 | 224 | 3.5 | 5.2 | 0.00 | 0.00 | 0.00 | 41 | 1018.2 |
| 20260503212301 | 68 | 240 | 1.7 | 3.5 | 0.00 | 0.00 | 0.00 | 40 | 1018.3 |
| 20260503211759 | 68 | 207 | 0.0 | 1.7 | 0.00 | 0.00 | 0.00 | 43 | 1018.4 |
| 20260503211255 | 69 | 264 | 2.6 | 7.0 | 0.00 | 0.00 | 0.00 | 42 | 1018.5 |
| 20260503210755 | 68 | 132 | 0.9 | 1.7 | 0.00 | 0.00 | 0.00 | 38 | 1018.3 |
| 20260503210253 | 67 | 178 | 0.0 | 1.7 | 0.00 | 0.00 | 0.00 | 41 | 1018.5 |
| 20260503205748 | 66 | 238 | 4.3 | 5.2 | 0.00 | 0.00 | 0.00 | 39 | 1018.7 |
| 20260503205245 | 68 | 244 | 3.5 | 3.5 | 0.00 | 0.00 | 0.00 | 40 | 1018.7 |
| 20260503204741 | 68 | 194 | 0.9 | 6.1 | 0.00 | 0.00 | 0.00 | 40 | 1018.7 |
| 20260503204239 | 67 | 234 | 5.2 | 11.3 | 0.00 | 0.00 | 0.00 | 43 | 1018.8 |
| 20260503203736 | 67 | 14 | 2.6 | 5.2 | 0.00 | 0.00 | 0.00 | 38 | 1019.0 |
| 20260503203233 | 68 | 188 | 1.7 | 3.5 | 0.00 | 0.00 | 0.00 | 37 | 1019.0 |
| 20260503202730 | 66 | 134 | 0.0 | 0.0 | 0.00 | 0.00 | 0.00 | 40 | 1019.2 |
| 20260503202228 | 66 | 332 | 0.9 | 1.7 | 0.00 | 0.00 | 0.00 | 39 | 1019.2 |
| 20260503201726 | 66 | 248 | 4.3 | 7.0 | 0.00 | 0.00 | 0.00 | 37 | 1019.4 |
| 20260503201223 | 67 | 231 | 2.6 | 3.5 | 0.00 | 0.00 | 0.00 | 39 | 1019.2 |
| 20260503200719 | 66 | 213 | 1.7 | 7.0 | 0.00 | 0.00 | 0.00 | 41 | 1019.5 |
| 20260503200216 | 65 | 198 | 1.7 | 7.0 | 0.00 | 0.00 | 0.00 | 43 | 1019.4 |
| 20260503195713 | 65 | 179 | 0.0 | 5.2 | 0.00 | 0.00 | 0.00 | 37 | 1019.6 |
| 20260503195210 | 68 | 236 | 2.6 | 3.5 | 0.00 | 0.00 | 0.00 | 37 | 1019.7 |
| 20260503194707 | 67 | 221 | 1.7 | 3.5 | 0.00 | 0.00 | 0.00 | 40 | 1019.9 |
| 20260503194202 | 66 | 127 | 1.7 | 3.5 | 0.00 | 0.00 | 0.00 | 43 | 1019.8 |
| 20260503193659 | 66 | 135 | 0.9 | 2.6 | 0.00 | 0.00 | 0.00 | 44 | 1019.8 |
| 20260503193155 | 65 | 85 | 0.9 | 2.6 | 0.00 | 0.00 | 0.00 | 45 | 1020.0 |
| 20260503192651 | 65 | 160 | 0.9 | 5.2 | 0.00 | 0.00 | 0.00 | 44 | 1020.2 |
| 20260503192146 | 64 | 246 | 0.9 | 3.5 | 0.00 | 0.00 | 0.00 | 42 | 1019.9 |
| 20260503191643 | 67 | 232 | 1.7 | 6.1 | 0.00 | 0.00 | 0.00 | 42 | 1020.2 |
| 20260503191140 | 65 | 271 | 1.7 | 3.5 | 0.00 | 0.00 | 0.00 | 39 | 1020.0 |
| 20260503190637 | 64 | 127 | 2.6 | 3.5 | 0.00 | 0.00 | 0.00 | 42 | 1020.3 |
| 20260503190134 | 64 | 171 | 0.0 | 5.2 | 0.00 | 0.00 | 0.00 | 40 | 1020.4 |
| 20260503185631 | 64 | 221 | 4.3 | 6.1 | 0.00 | 0.00 | 0.00 | 42 | 1020.4 |
| 20260503185126 | 65 | 357 | 0.9 | 3.5 | 0.00 | 0.00 | 0.00 | 42 | 1020.5 |
| 20260503184621 | 65 | 256 | 1.7 | 3.5 | 0.00 | 0.00 | 0.00 | 40 | 1020.5 |
| 20260503184118 | 64 | 311 | 3.5 | 3.5 | 0.00 | 0.00 | 0.00 | 41 | 1020.6 |
| 20260503183615 | 63 | 275 | 3.5 | 6.1 | 0.00 | 0.00 | 0.00 | 42 | 1020.6 |
| 20260503183112 | 63 | 226 | 0.9 | 5.2 | 0.00 | 0.00 | 0.00 | 42 | 1020.8 |
| 20260503182610 | 64 | 205 | 4.3 | 6.1 | 0.00 | 0.00 | 0.00 | 41 | 1020.7 |
| 20260503182108 | 63 | 276 | 5.2 | 7.0 | 0.00 | 0.00 | 0.00 | 43 | 1020.8 |
| 20260503181604 | 63 | 233 | 5.2 | 7.0 | 0.00 | 0.00 | 0.00 | 44 | 1021.0 |
| 20260503181101 | 62 | 284 | 3.5 | 3.5 | 0.00 | 0.00 | 0.00 | 42 | 1021.1 |
| 20260503180558 | 63 | 239 | 2.6 | 5.2 | 0.00 | 0.00 | 0.00 | 45 | 1020.9 |
| 20260503180056 | 62 | 187 | 0.0 | 2.6 | 0.00 | 0.00 | 0.00 | 47 | 1021.0 |
| 20260503175553 | 62 | 280 | 2.6 | 6.1 | 0.00 | 0.00 | 0.00 | 41 | 1021.0 |
| 20260503175050 | 63 | 253 | 1.7 | 2.6 | 0.00 | 0.00 | 0.00 | 40 | 1021.2 |
| 20260503174547 | 63 | 170 | 0.0 | 1.7 | 0.00 | 0.00 | 0.00 | 41 | 1021.2 |
| 20260503174043 | 62 | 206 | 1.7 | 2.6 | 0.00 | 0.00 | 0.00 | 42 | 1021.4 |
| 20260503173538 | 62 | 283 | 3.5 | 9.6 | 0.00 | 0.00 | 0.00 | 42 | 1021.4 |
| 20260503173035 | 61 | 142 | 0.0 | 1.7 | 0.00 | 0.00 | 0.00 | 44 | 1021.4 |
| 20260503172533 | 60 | 227 | 1.7 | 5.2 | 0.00 | 0.00 | 0.00 | 47 | 1021.4 |
| 20260503172030 | 61 | 223 | 2.6 | 3.5 | 0.00 | 0.00 | 0.00 | 45 | 1021.6 |
| 20260503171526 | 60 | 137 | 0.9 | 1.7 | 0.00 | 0.00 | 0.00 | 45 | 1021.5 |
| 20260503171024 | 60 | 189 | 3.5 | 3.5 | 0.00 | 0.00 | 0.00 | 44 | 1021.6 |
| 20260503170520 | 61 | 325 | 3.5 | 5.2 | 0.00 | 0.00 | 0.00 | 43 | 1021.7 |
| 20260503150912 | 58 | 68 | 0.0 | 3.5 | 0.00 | 0.00 | 0.00 | 50 | 1022.5 |
| 20260503150409 | 59 | 111 | 0.9 | 2.6 | 0.00 | 0.00 | 0.00 | 52 | 1022.6 |
| 20260503131302 | 53 | 147 | 0.0 | 0.9 | 0.00 | 0.00 | 0.00 | 69 | 1022.4 |
| 20260503130759 | 52 | 113 | 0.0 | 2.6 | 0.00 | 0.00 | 0.00 | 71 | 1022.5 |
| 20260503130256 | 53 | 104 | 0.9 | 2.6 | 0.00 | 0.00 | 0.00 | 69 | 1022.5 |
| 20260503110650 | 38 | 158 | 0.0 | 0.0 | 0.00 | 0.00 | 0.00 | 99 | 1021.2 |
| 20260503110147 | 38 | 161 | 0.0 | 0.0 | 0.00 | 0.00 | 0.00 | 99 | 1021.2 |
| 20260503100114 | 38 | 157 | 0.0 | 0.0 | 0.00 | 0.00 | 0.00 | 99 | 1020.4 |
| 20260503081504 | 40 | 138 | 0.0 | 0.0 | 0.00 | 0.00 | 0.00 | 97 | 1019.8 |
| 20260503081000 | 40 | 135 | 0.0 | 0.0 | 0.00 | 0.00 | 0.00 | 97 | 1019.9 |
| 20260503080457 | 40 | 149 | 0.0 | 0.0 | 0.00 | 0.00 | 0.00 | 98 | 1019.7 |
| 20260503072933 | 41 | 151 | 0.0 | 0.0 | 0.00 | 0.00 | 0.00 | 96 | 1019.6 |
| 20260503072430 | 41 | 127 | 0.0 | 0.9 | 0.00 | 0.00 | 0.00 | 96 | 1019.5 |
| 20260503071927 | 41 | 129 | 0.0 | 0.0 | 0.00 | 0.00 | 0.00 | 96 | 1019.3 |
| 20260503071424 | 41 | 104 | 0.9 | 0.9 | 0.00 | 0.00 | 0.00 | 96 | 1019.3 |
| 20260503070920 | 41 | 130 | 0.0 | 0.0 | 0.00 | 0.00 | 0.00 | 97 | 1019.3 |
| 20260503070418 | 40 | 149 | 0.0 | 0.0 | 0.00 | 0.00 | 0.00 | 96 | 1019.0 |
| 20260503060344 | 41 | 153 | 0.0 | 0.0 | 0.00 | 0.00 | 0.00 | 95 | 1019.2 |
| 20260503054831 | 42 | 156 | 0.0 | 0.0 | 0.00 | 0.00 | 0.00 | 94 | 1019.3 |
| 20260503054327 | 42 | 156 | 0.0 | 0.0 | 0.00 | 0.00 | 0.00 | 94 | 1019.2 |
| 20260503053825 | 42 | 157 | 0.0 | 0.0 | 0.00 | 0.00 | 0.00 | 93 | 1019.3 |
| 20260503053324 | 42 | 157 | 0.0 | 0.0 | 0.00 | 0.00 | 0.00 | 93 | 1019.1 |
| 20260503052819 | 43 | 173 | 0.0 | 0.0 | 0.00 | 0.00 | 0.00 | 93 | 1019.3 |
| 20260503052316 | 43 | 158 | 0.0 | 0.0 | 0.00 | 0.00 | 0.00 | 92 | 1018.9 |
| 20260503051812 | 43 | 159 | 0.0 | 0.9 | 0.00 | 0.00 | 0.00 | 92 | 1018.9 |
| 20260503051309 | 44 | 150 | 0.0 | 0.0 | 0.00 | 0.00 | 0.00 | 91 | 1018.9 |
| 20260503050806 | 44 | 132 | 0.0 | 0.0 | 0.00 | 0.00 | 0.00 | 91 | 1018.9 |
| 20260503050302 | 45 | 140 | 0.0 | 0.0 | 0.00 | 0.00 | 0.00 | 89 | 1018.9 |
| 20260503045800 | 45 | 147 | 0.0 | 0.0 | 0.00 | 0.00 | 0.00 | 87 | 1018.7 |
| 20260503045257 | 45 | 118 | 0.9 | 0.9 | 0.00 | 0.00 | 0.00 | 87 | 1018.9 |
| 20260503044753 | 46 | 139 | 0.0 | 0.9 | 0.00 | 0.00 | 0.00 | 86 | 1018.9 |
| 20260503044250 | 46 | 132 | 0.9 | 0.9 | 0.00 | 0.00 | 0.00 | 86 | 1019.0 |
| 20260503043748 | 46 | 150 | 0.0 | 0.9 | 0.00 | 0.00 | 0.00 | 86 | 1019.1 |
| 20260503043245 | 45 | 147 | 0.0 | 0.0 | 0.00 | 0.00 | 0.00 | 87 | 1018.9 |
| 20260503042740 | 45 | 168 | 0.0 | 1.7 | 0.00 | 0.00 | 0.00 | 88 | 1019.2 |
| 20260503042237 | 45 | 156 | 0.0 | 0.0 | 0.00 | 0.00 | 0.00 | 88 | 1019.1 |
| 20260503041733 | 46 | 178 | 0.0 | 0.9 | 0.00 | 0.00 | 0.00 | 87 | 1018.9 |
| 20260503041231 | 46 | 205 | 0.0 | 0.0 | 0.00 | 0.00 | 0.00 | 87 | 1018.9 |
| 20260503040729 | 46 | 162 | 0.0 | 0.9 | 0.00 | 0.00 | 0.00 | 87 | 1018.7 |
| 20260503040226 | 46 | 158 | 0.0 | 0.0 | 0.00 | 0.00 | 0.00 | 86 | 1018.5 |
| 20260503035723 | 46 | 160 | 0.0 | 0.0 | 0.00 | 0.00 | 0.00 | 86 | 1018.6 |
| 20260503035220 | 47 | 160 | 0.0 | 0.0 | 0.00 | 0.00 | 0.00 | 84 | 1018.6 |
| 20260503034717 | 48 | 134 | 0.0 | 0.0 | 0.00 | 0.00 | 0.00 | 81 | 1018.8 |
| 20260503034214 | 48 | 150 | 0.0 | 0.0 | 0.00 | 0.00 | 0.00 | 79 | 1018.8 |
| 20260503033712 | 49 | 144 | 0.0 | 0.0 | 0.00 | 0.00 | 0.00 | 78 | 1018.7 |
| 20260503033209 | 50 | 136 | 0.0 | 0.9 | 0.00 | 0.00 | 0.00 | 77 | 1018.6 |
| 20260503032707 | 50 | 114 | 0.9 | 0.9 | 0.00 | 0.00 | 0.00 | 76 | 1018.6 |
| 20260503032206 | 50 | 136 | 0.0 | 2.6 | 0.00 | 0.00 | 0.00 | 75 | 1018.6 |
| 20260503031702 | 51 | 53 | 0.0 | 3.5 | 0.00 | 0.00 | 0.00 | 73 | 1018.6 |
| 20260503031201 | 51 | 41 | 0.0 | 1.7 | 0.00 | 0.00 | 0.00 | 73 | 1018.4 |
| 20260503030656 | 51 | 107 | 0.9 | 3.5 | 0.00 | 0.00 | 0.00 | 71 | 1018.5 |
| 20260503030153 | 51 | 306 | 2.6 | 5.2 | 0.00 | 0.00 | 0.00 | 71 | 1018.7 |
| 20260503025650 | 51 | 335 | 1.7 | 5.2 | 0.00 | 0.00 | 0.00 | 72 | 1018.7 |
| 20260503025148 | 51 | 254 | 3.5 | 6.1 | 0.00 | 0.00 | 0.00 | 71 | 1018.7 |
| 20260503024644 | 51 | 39 | 1.7 | 6.1 | 0.00 | 0.00 | 0.00 | 71 | 1018.5 |
| 20260503024142 | 51 | 318 | 1.7 | 7.0 | 0.00 | 0.00 | 0.00 | 71 | 1018.5 |
| 20260503023639 | 51 | 300 | 1.7 | 7.8 | 0.00 | 0.00 | 0.00 | 71 | 1018.5 |
| 20260503023136 | 51 | 311 | 5.2 | 7.0 | 0.00 | 0.00 | 0.00 | 70 | 1018.5 |
| 20260503022632 | 52 | 330 | 3.5 | 5.2 | 0.00 | 0.00 | 0.00 | 68 | 1018.5 |
| 20260503022131 | 53 | 177 | 2.6 | 8.7 | 0.00 | 0.00 | 0.00 | 64 | 1018.4 |
| 20260503021629 | 54 | 312 | 1.7 | 7.0 | 0.00 | 0.00 | 0.00 | 61 | 1018.5 |
| 20260503021125 | 54 | 350 | 4.3 | 6.1 | 0.00 | 0.00 | 0.00 | 59 | 1018.4 |
| 20260503020622 | 54 | 221 | 0.9 | 1.7 | 0.00 | 0.00 | 0.00 | 59 | 1018.3 |
| 20260503020120 | 54 | 285 | 2.6 | 3.5 | 0.00 | 0.00 | 0.00 | 58 | 1018.2 |
| 20260503015616 | 54 | 263 | 0.9 | 1.7 | 0.00 | 0.00 | 0.00 | 59 | 1018.1 |
| 20260503015113 | 54 | 211 | 0.9 | 0.9 | 0.00 | 0.00 | 0.00 | 59 | 1017.9 |